Regional Weather Roundup
Issued by NWS

Home | Current Version | Previous Version | Graphics & Text | Print | Product List | Glossary On
Versions: 1 2 3 4 5 6 7 8 9 10 11 12 13 14 15 16 17 18 19 20 21 22 23 24 25 26 27 28 29 30 31 32 33 34 35 36 37 38 39 40 41 42 43 44 45 46 47 48 49 50
000
ASUS43 KDTX 220801
RWRMI
MICHIGAN HOURLY REGIONAL WEATHER ROUNDUP
NATIONAL WEATHER SERVICE DETROIT/PONTIAC MI
300 AM EST SUN JAN 22 2017

NOTE: "FAIR" INDICATES FEW OR NO CLOUDS BELOW 12,000 FEET WITH NO
SIGNIFICANT WEATHER AND/OR OBSTRUCTION TO VISIBILITY.

MIZ047>049-052>055-059>063-066>070-074>076-081>083-220900-
SOUTHEAST LOWER MICHIGAN

CITY           SKY/WX    TMP DP  RH WIND       PRES   REMARKS
ADRIAN         FOG       36  36 100 CALM      29.62R VSB 1/4
ALMA           FOG       37  37  99 CALM      29.60R VSB 1/4
ANN ARBOR      FOG       36  36 100 SW3       29.61R VSB 1/4
BAD AXE        FOG       41  41 100 CALM      29.61S VSB 1/4
CARO           FOG       39  39 100 CALM      29.59S VSB<1/4
DETROIT CITY   FOG       39  39 100 CALM      29.62S VSB 1/4
DETROIT        FOG       41  40  96 CALM      29.62S VSB 1/8
FLINT          FOG       36  36 100 CALM      29.60S VSB 1/4
GROSSE ILE     FOG       41  41  99 S5        29.62R VSB<1/4
HILLSDALE      FOG       45  45 100 S5        29.60S VSB 1/4
HOWELL         CLOUDY    38  37  97 CALM      29.60R VSB<1/4

CITY           SKY/WX    TMP DP  RH WIND       PRES   REMARKS
JACKSON        FOG       46  45  96 S3        29.60R VSB 1/2
LAMBERTVILLE   FOG       42  40  95 CALM      29.62S VSB 1/4
LANSING        FOG       43  41  93 CALM      29.60R VSB<1/4
LAPEER         FOG       34  34 100 CALM      29.60S VSB 1/4
MASON          FOG       42  42 100 CALM      29.60R VSB 1/4
MONROE         FOG       37  37 100 CALM      29.61R VSB 1/4
MT. CLEMENS    FOG       36  36 100 CALM      29.61S VSB 1/2
PONTIAC        FOG       38  36  92 E5        29.60R VSB 1/4 WCI  34
PORT HOPE        N/A     38  38 100 SE7       29.60R WCI  33
PORT HURON     FOG       39  39 100 CALM      29.63S VSB 1/4
TRI CITIES     FOG       38  38 100 CALM      29.59S VSB<1/4
MIDLAND        FOG       39  38  97 CALM      29.58S VSB<1/4
TROY           FOG       40  38  95 NE3       29.64R VSB 1/4
SAGINAW HB     FOG       41  39  93 CALM      29.59S VSB<1/4
$$
MIZ043>046-050>051-056>058-064>065-071>073-077>080-220900-
SOUTHWEST LOWER MICHIGAN

CITY           SKY/WX    TMP DP  RH WIND       PRES   REMARKS
BATTLE CREEK   FOG       44  44 100 CALM      29.60R VSB 1/4
BENTON HARBOR  FOG       35  32  88 CALM      29.61R VSB 1/2
BIG RAPIDS     FOG       36  35  98 CALM      29.58R VSB 1/4
COLDWATER      FOG       44  44 100 CALM      29.60S VSB 1/2
FREMONT        FOG       36  36 100 CALM      29.58S VSB 1/4
HOLLAND        CLEAR     34  34 100 W3        29.60R
GRAND RAPIDS   FOG       35  33  92 CALM      29.59R VSB 1/2
IONIA          FOG       36  36 100 S3        29.59R VSB<1/4
KALAMAZOO      FOG       40  38  93 CALM      29.60S VSB<1/4
LUDINGTON      CLOUDY    40  40 100 CALM      29.58S FOG
MARSHALL       FOG       41  40  98 CALM      29.59S VSB 1/4
MOUNT PLEASANT FOG       35  35  99 CALM      29.58S VSB<1/4
MUSKEGON       CLOUDY    42  41  96 CALM      29.60S FOG
SOUTH HAVEN    CLEAR     34  33  98 CALM      29.61R FOG
$$
MIZ016>042-220900-
NORTHERN LOWER MICHIGAN

CITY           SKY/WX    TMP DP  RH WIND       PRES   REMARKS
ALPENA         FOG       37  36  96 E3        29.61S VSB 1/2
BEAVER ISLAND  FOG       39  39 100 SE5       29.57R VSB 1/4
BELLAIRE       FOG       36  36  99 CALM      29.58S VSB 1/2
CADILLAC       FOG       39  38  97 CALM      29.56S VSB 1/4
CHARLEVOIX     FOG       40  40 100 SE3       29.60S VSB 1/4
FRANKFORT      CLOUDY    42  41  98 CALM      29.58R FOG
GAYLORD        FOG       40  37  89 CALM      29.57R VSB 1/4
GRAYLING       FOG       37  37  99 CALM      29.58S VSB 1/4
HARBOR SPRINGS CLOUDY    35  35 100 E7        29.57F FOG     WCI  30
HOUGHTON LAKE  FOG       40  39  97 CALM      29.58R VSB 1/4
MANISTEE       FOG       37  37 100 CALM      29.58S VSB 1/4
OSCODA         FOG       40  39  97 CALM      29.60S VSB 1/4
PELLSTON       FOG       35  34  96 CALM      29.59S VSB 1/4
ROGERS CITY    FOG       38  37  96 S5        29.61S VSB 1/2 WCI  34
TRAVERSE CITY  FOG       39  38  96 CALM      29.57R VSB 1/2
$$
MIZ007>008-015-220900-
EASTERN UPPER MICHIGAN

CITY           SKY/WX    TMP DP  RH WIND       PRES   REMARKS
KINROSS        LGT RAIN  35  34  96 E9        29.60R VSB 1/2 WCI  28
MACKINAC ISLAN FOG       35  35 100 E8        29.59R VSB 1/4 WCI  29
NEWBERRY       FOG       35  34  96 E6        29.56S VSB 3/4 WCI  30
S. S. MARIE    CLOUDY    37  36  96 E8        29.61R FOG     WCI  31
MUNISING         N/A     37  37 100 SW6       29.54R WCI  32
$$
MIZ004>006-011>014-085-220900-
CENTRAL UPPER MICHIGAN

CITY           SKY/WX    TMP DP  RH WIND       PRES   REMARKS
MANISTIQUE     FOG       36  35  96 E8        29.55S VSB 1/4 WCI  29
ESCANABA       FOG       34  34 100 CALM      29.56R VSB 1/2
SAWYER-GWINN   FOG       33  33  99 CALM      29.53S VSB 1/4
$$
MIZ001>003-009>011-084-220900-
WESTERN UPPER MICHIGAN

CITY           SKY/WX    TMP DP  RH WIND       PRES   REMARKS
IRON MOUNTAIN  FOG       33  31  92 CALM      29.53R VSB 1/2
HOUGHTON       FOG       35  33  92 E5        29.52R VSB 1/4 WCI  31
IRONWOOD       FOG       34  33  96 W5        29.53R VSB 1/4 WCI  30
$$

ABBREVIATIONS USED IN REMARKS
   TC - TEMPERATURE IN CELSIUS
  WCI - WIND CHILL INDEX
   HX - HEAT INDEX
  VSB - VISIBILITY





USA.gov is the U.S. government's official web portal to all federal, state and local government web resources and services.